Temp
16 16 16 16 16 16 16 16 16 16 16 16 17 17 17 16 17 17 16 16 15 14 14 14 14 13 13 12 12 11 11 11 10 10 10 10 10 10 10 10 10 10 10
15 15 14 15 15 15 16 16 16 16 17 17 16 16 16 16 17 17 16 15 15 14 14 14 13 13 13 12 12 11 11 10 10 10 10 9 9 10 10 10 10 10 10
14 15 15 14 15 15 15 15 16 17 17 17 16 16 16 16 17 16 16 15 14 14 13 13 13 13 12 12 11 11 10 10 10 9 9 9 9 9 9 9 9 9 9
15 15 14 14 15 15 14 14 15 16 17 16 16 15 16 16 16 16 15 14 14 13 13 13 13 13 12 12 11 11 10 9 9 9 9 9 9 9 9 9 9 9 9
15 15 14 14 14 14 13 14 14 15 15 15 15 15 15 15 15 15 14 14 14 13 13 13 12 12 12 11 11 10 10 9 9 9 8 8 8 9 9 9 9 9 9
13 14 14 15 14 13 13 13 14 14 14 14 13 13 13 14 14 14 14 13 13 13 13 13 12 12 11 11 11 10 10 9 9 8 8 8 8 8 9 9 9 9 9
14 13 14 14 14 13 13 13 12 12 12 12 12 10 11 12 12 12 13 13 13 13 12 12 12 12 11 11 10 10 10 9 9 8 8 8 8 8 8 9 9 9 9
12 13 13 14 14 12 12 12 12 12 12 11 11 10 9 9 11 11 12 12 12 12 12 12 12 12 11 11 10 10 9 9 9 8 8 8 8 8 8 9 9 9 8
12 12 13 14 13 13 12 12 12 12 12 11 12 11 9 11 8 9 10 11 11 11 12 11 11 11 11 11 11 10 9 9 8 8 8 8 8 8 8 8 8 8 8
12 12 13 13 13 13 11 12 12 12 11 10 10 10 11 10 9 8 7 8 9 10 10 11 11 11 10 10 9 10 10 9 9 8 7 7 7 7 8 7 7 7 7
12 12 12 12 12 13 12 11 11 11 11 11 11 10 10 9 10 8 8 7 7 8 8 9 10 10 10 9 9 9 9 8 7 7 7 7 7 7 6 6 6 6 6
10 11 12 12 12 12 12 11 11 11 10 11 11 11 10 9 9 9 7 6 7 8 7 7 8 9 8 8 7 8 8 7 6 6 6 6 6 5 5 5 5 5 5
9 10 12 11 12 11 12 11 12 11 10 10 10 10 10 10 12 10 8 6 6 5 6 6 6 6 6 6 6 6 7 7 6 6 5 5 5 5 5 4 4 4 4
8 9 10 11 11 11 11 11 11 11 11 10 10 10 11 10 11 11 11 8 5 5 5 6 6 5 6 6 6 6 6 6 6 6 5 5 5 4 3 2 2 2 2
7 7 9 10 11 11 11 11 10 10 10 10 10 10 11 11 10 10 11 11 9 6 5 4 6 6 6 5 5 5 5 5 5 5 4 4 4 3 3 3 1 1 1
6 7 8 9 10 11 11 11 10 10 10 10 10 10 10 10 10 10 10 10 9 8 5 5 5 5 4 4 4 4 4 4 4 3 3 3 3 2 1 0 0 0 0
6 8 8 9 10 10 11 10 10 10 10 10 10 9 9 9 9 9 9 9 9 8 5 3 4 4 4 4 4 3 3 3 3 3 3 3 2 0 -0 -0 -0 -0 -0
6 8 9 9 10 10 10 10 9 9 9 9 9 9 9 9 8 8 8 7 7 7 7 2 3 2 3 3 4 3 2 2 2 2 2 2 2 -0 -1 -0 -1 -1 -1
6 8 8 9 9 9 9 9 9 9 9 9 9 9 9 8 8 8 7 7 6 6 7 5 1 1 1 2 1 1 2 1 2 1 1 1 1 -1 -1 -1 -1 -1 -1
4 7 8 8 9 9 9 9 9 9 8 8 8 8 8 8 8 7 6 6 5 5 4 3 1 1 1 0 1 1 1 1 1 0 0 0 -0 -0 -1 -1 -1 -1 -2
4 6 7 8 8 8 8 9 8 8 8 8 8 8 7 7 7 7 6 5 5 4 2 1 -0 -0 -0 -1 0 0 0 -0 -1 -1 -0 -0 -0 -1 -1 -1 -1 -2 -2
3 4 6 7 7 8 8 8 8 8 7 7 7 6 6 6 6 6 5 5 6 5 3 1 0 -0 -1 -0 0 -0 -1 -1 -1 -1 -1 -1 -1 -1 -1 -1 -2 -2 -2
3 3 4 5 6 7 7 7 7 7 7 6 6 5 4 4 4 3 3 3 3 3 4 4 1 1 0 0 0 -1 -1 -1 -2 -2 -2 -2 -2 -1 -2 -2 -2 -3 -3
2 2 3 4 5 5 6 6 6 6 5 4 4 4 3 2 2 2 2 2 1 2 2 3 3 1 1 0 0 0 -1 -2 -3 -3 -3 -3 -3 -2 -1 -2 -2 -3 -4
1 2 3 3 3 4 5 4 5 4 2 2 2 2 2 1 0 1 1 0 0 -1 0 1 0 -0 -1 -1 -1 -1 -2 -2 -3 -4 -4 -4 -4 -4 -3 -2 -3 -3 -3
1 2 2 3 3 3 2 2 3 2 0 -0 -0 -0 0 -0 -1 1 1 0 -2 -3 -2 -2 -3 -3 -3 -3 -3 -2 -2 -2 -4 -5 -5 -5 -5 -6 -6 -3 -3 -3 -4
Height
805 805 808 811 815 818 822 822 823 826 828 830 832 834 836 838 839 839 842 844 846 848 851 853 855 858 860 861 864 866 867 868 868 870 871 871 871 872 872 872 872 872 872
805 808 796 799 814 814 820 822 824 823 826 828 830 831 834 836 837 838 840 843 846 848 851 853 855 858 860 861 863 866 867 867 868 869 869 870 871 872 872 872 873 872 872
806 804 800 804 806 813 817 817 820 822 821 823 829 829 829 832 835 837 838 841 844 847 850 852 854 857 861 862 863 866 868 868 868 868 869 870 870 870 871 872 872 872 872
806 807 806 806 807 810 815 810 815 816 818 821 823 828 827 829 832 836 838 839 842 846 849 851 853 856 859 861 862 863 867 868 869 870 869 869 870 870 870 871 871 871 872
805 806 808 807 807 809 810 808 811 815 813 818 822 824 826 829 832 835 838 840 841 843 847 850 853 854 857 861 861 862 864 865 867 868 869 869 869 870 870 871 870 870 870
802 803 804 805 807 805 808 808 809 812 812 815 819 822 823 826 830 833 836 839 841 842 845 847 851 855 855 859 860 861 862 864 866 867 867 868 868 868 868 869 869 869 869
799 799 800 801 803 803 804 803 806 808 811 813 814 821 823 824 827 832 833 836 839 841 843 846 848 852 854 857 859 858 861 863 864 866 867 867 867 868 868 867 867 866 866
796 795 796 796 797 799 801 802 802 806 807 809 813 816 823 824 825 830 832 835 836 837 839 843 844 847 851 852 856 858 860 861 862 864 865 866 866 866 867 867 865 864 863
793 793 792 793 794 795 797 798 799 803 803 808 809 814 818 817 824 826 827 831 834 835 836 837 841 845 849 850 849 854 857 859 860 863 864 865 865 864 864 865 864 862 861
791 791 790 790 790 792 793 794 797 799 798 802 808 809 809 812 816 826 828 828 830 832 832 834 838 842 846 850 851 853 853 856 856 859 862 863 864 864 861 861 862 860 858
790 789 788 787 786 787 789 791 793 794 797 800 802 804 805 810 811 816 822 825 828 828 829 832 834 837 842 848 849 850 854 854 856 856 858 859 862 861 860 859 859 857 856
785 785 784 783 783 783 784 786 789 791 793 795 798 799 803 805 809 811 817 822 825 826 830 830 832 834 839 844 847 849 850 852 854 854 855 856 858 858 855 857 856 854 852
782 780 780 779 779 778 779 781 783 786 788 791 793 795 800 799 802 807 811 817 821 826 828 830 832 833 838 840 844 846 848 848 851 852 852 853 852 852 851 854 853 851 849
779 776 774 774 773 773 774 776 777 780 784 787 790 793 794 798 801 802 806 811 820 824 825 825 828 831 834 837 840 843 845 846 848 849 849 849 849 848 849 849 848 846 843
773 770 768 768 767 768 769 771 773 776 778 781 785 788 790 793 797 798 802 804 807 817 820 822 823 826 828 832 836 840 841 844 845 847 846 846 846 845 845 843 843 842 840
767 763 762 762 762 762 763 765 768 771 774 777 780 783 786 789 792 795 798 799 802 804 814 818 820 821 826 829 833 837 839 840 842 844 844 845 843 843 842 841 840 837 836
760 758 756 756 756 756 758 760 763 766 769 771 775 779 782 784 788 791 793 796 797 800 805 813 817 820 823 826 830 834 836 837 840 840 842 840 840 841 839 839 838 836 834
755 752 750 751 751 751 753 755 758 760 763 767 770 773 776 781 782 785 787 790 792 795 799 807 814 817 820 824 829 831 833 835 836 838 838 837 837 837 837 836 834 834 831
751 747 747 746 747 748 748 750 753 756 759 762 764 767 771 775 778 779 783 786 789 792 794 800 807 813 818 822 826 828 828 831 833 834 834 834 834 833 834 833 833 832 829
748 744 742 742 742 742 744 745 748 752 755 758 761 764 767 770 773 776 780 783 786 790 794 798 805 810 815 819 821 823 826 829 830 831 833 833 832 832 832 831 830 828 825
744 740 737 737 739 740 741 742 745 748 751 755 758 760 764 767 770 773 776 780 784 789 793 797 803 808 812 815 818 820 824 827 829 831 831 832 830 831 830 828 825 824 823
741 737 735 735 735 736 737 740 742 745 747 750 754 758 761 765 769 772 775 778 781 785 791 796 801 805 809 812 816 819 823 826 829 829 830 829 830 829 826 824 822 820 821
738 734 732 731 732 733 734 737 739 742 744 748 752 756 760 764 767 770 774 778 782 787 790 792 796 803 808 810 814 818 822 824 827 828 830 827 826 824 822 821 820 820 819
735 731 729 728 729 730 731 733 735 738 742 746 751 754 759 762 767 769 772 778 784 789 793 796 800 805 807 812 815 818 821 823 826 828 827 824 823 820 818 818 819 819 816
732 730 727 727 727 728 730 732 734 737 742 746 752 755 759 762 767 770 772 779 785 792 798 800 803 806 810 813 815 817 820 822 824 827 826 823 822 820 818 818 817 815 812
731 729 727 726 726 728 731 733 734 736 742 748 755 759 762 766 771 774 777 781 787 796 798 802 805 807 811 813 815 817 819 819 821 825 826 826 825 824 819 815 814 812 809
Wind_Speed
18 22 24 18 13 11 11 16 17 15 15 14 16 20 16 11 11 13 19 18 19 21 21 20 20 19 19 19 16 13 12 11 11 10 9 9 9 8 8 8 8 8 8
11 12 18 18 14 15 11 15 16 16 14 15 19 20 16 12 15 18 21 21 19 22 21 21 20 20 18 19 16 14 12 11 10 10 9 8 7 7 7 6 7 7 7
7 11 15 23 22 20 18 21 20 18 19 22 20 20 16 17 19 22 23 24 25 22 22 21 22 19 18 16 15 13 11 10 10 9 8 7 6 6 5 5 5 6 5
9 8 18 24 27 30 25 25 18 22 22 24 25 20 17 19 21 23 24 26 26 22 21 22 22 21 19 16 16 15 11 9 8 7 6 5 5 4 4 3 3 4 4
9 7 14 23 30 29 27 25 26 29 24 26 24 20 17 19 19 22 25 26 24 23 21 20 23 23 21 17 17 15 13 11 8 7 5 4 3 2 1 2 2 3 5
8 11 11 19 24 25 26 27 29 25 27 27 21 19 22 20 21 25 27 24 23 24 23 23 23 23 22 19 19 17 14 11 9 7 5 3 1 0 0 2 3 4 6
12 11 14 15 20 23 26 28 23 22 22 23 22 15 13 20 22 24 25 25 25 25 25 26 29 26 23 21 18 17 14 11 8 6 4 2 1 2 2 3 4 6 7
10 11 17 13 16 19 23 27 30 21 16 24 8 9 3 3 13 18 22 21 25 28 30 32 31 29 27 25 19 16 14 12 9 7 4 3 1 2 4 5 5 7 8
16 11 13 17 13 19 23 26 25 28 20 25 18 8 2 2 4 10 18 22 24 28 31 36 34 30 28 25 22 19 15 11 9 7 5 3 2 3 4 6 7 8 8
17 14 11 15 16 18 22 27 28 28 22 21 24 13 7 7 3 2 9 15 22 23 28 33 35 32 28 24 20 16 14 13 10 7 5 3 4 4 4 6 8 9 9
15 17 15 14 16 18 21 24 25 30 30 23 24 15 7 7 8 4 3 6 13 17 19 29 34 32 26 24 19 15 14 12 9 8 6 3 4 5 5 7 8 8 10
18 17 18 19 18 19 21 24 27 26 29 27 28 22 20 11 7 4 3 3 8 12 16 17 25 26 25 22 17 15 14 12 10 8 6 4 4 5 5 8 8 8 8
24 19 19 20 21 22 23 24 26 27 29 27 29 29 27 20 17 14 8 5 3 5 15 18 20 22 21 18 16 16 15 13 12 10 8 5 9 10 9 7 7 7 8
27 27 23 21 20 22 22 24 24 23 23 27 28 28 30 30 24 22 16 10 2 2 8 8 22 21 21 17 16 16 16 14 13 13 12 11 11 11 8 5 7 7 8
25 25 23 22 22 21 23 25 26 27 24 26 29 26 26 26 28 29 25 25 12 4 6 12 10 27 24 20 18 18 16 16 14 14 13 12 11 10 10 8 7 7 8
28 26 23 22 21 19 22 22 22 20 23 25 23 23 26 25 25 26 26 24 23 12 4 8 12 14 20 18 18 18 17 15 14 13 12 12 11 10 9 6 7 7 7
26 23 23 20 22 20 19 22 21 24 21 20 23 21 27 24 23 28 29 28 28 20 8 5 13 15 18 20 20 18 16 14 13 12 12 11 10 8 8 8 9 9 8
26 21 22 19 19 19 21 20 20 20 20 22 20 22 23 21 24 25 28 27 27 26 14 12 15 20 19 20 19 16 13 12 11 10 10 11 10 7 8 10 10 9 9
25 21 14 14 16 17 19 18 20 20 20 20 21 26 26 25 25 25 24 27 25 23 21 19 14 17 18 19 17 12 9 9 8 7 7 8 7 5 8 9 8 9 10
25 18 15 14 13 15 16 20 21 18 18 19 18 18 21 26 25 25 24 25 25 23 17 20 15 19 17 15 12 10 8 6 4 6 7 7 7 7 7 6 8 9 11
23 17 9 12 14 16 19 18 17 18 19 18 18 16 17 20 21 22 24 25 25 23 21 22 16 12 12 12 14 11 8 6 6 6 6 6 8 6 5 7 9 10 12
22 15 11 10 10 12 15 14 14 17 17 18 17 15 14 14 16 17 20 25 27 29 25 16 14 14 14 13 14 11 10 6 3 4 4 6 3 4 8 10 11 10 10
21 15 10 8 9 12 14 15 17 18 19 18 18 17 15 14 16 17 20 24 21 18 21 24 22 18 16 15 16 13 10 7 4 2 5 3 4 11 9 12 6 5 11
20 13 8 6 8 10 11 16 16 19 20 19 19 19 21 23 24 29 30 26 21 16 14 12 16 15 11 13 12 10 10 9 7 2 5 2 9 14 14 4 2 6 15
16 12 6 5 6 7 17 16 18 22 22 22 21 23 26 30 28 33 33 33 27 21 16 17 17 15 13 12 10 11 10 12 4 1 7 8 9 17 9 3 2 17 12
12 6 3 3 9 17 15 13 22 26 28 26 23 23 26 27 24 29 28 28 30 24 24 21 19 18 15 13 11 7 7 8 6 3 6 5 7 11 7 4 14 20 19
Wind_Direction
219 207 200 186 186 168 192 194 188 187 193 212 205 198 198 209 200 196 185 179 183 162 152 150 147 146 145 140 136 129 128 124 120 113 104 96 87 80 75 70 62 55 49
256 240 184 159 167 164 186 193 186 184 202 205 203 193 202 213 200 188 182 181 180 162 157 154 152 150 147 143 140 141 139 134 126 118 110 99 89 82 76 65 54 46 40
306 274 191 181 171 186 189 202 200 207 200 191 197 196 188 192 191 187 182 183 171 166 167 161 155 151 149 146 143 142 140 134 130 123 114 102 94 91 80 65 47 32 29
313 250 206 198 196 186 187 188 212 209 201 189 183 182 178 183 183 186 185 179 172 169 172 170 163 158 153 153 150 147 145 139 132 123 115 105 98 92 93 83 52 26 14
287 253 235 210 196 195 203 205 207 211 187 181 184 178 175 178 182 180 177 174 175 177 179 177 168 159 157 160 156 152 152 150 147 141 133 120 98 77 42 16 356 352 346
277 258 238 238 234 221 222 210 204 202 187 177 163 148 161 169 179 181 182 185 183 181 183 177 171 169 167 167 163 158 159 160 159 159 155 154 139 94 290 306 316 325 328
275 261 240 248 241 243 243 214 207 191 172 176 149 129 142 160 174 188 189 193 193 192 190 184 177 177 176 175 172 163 166 167 169 173 175 178 226 292 294 294 302 310 320
311 303 245 247 251 238 239 224 209 190 186 187 161 134 167 124 173 189 191 198 201 197 194 189 189 189 186 183 179 173 170 174 176 183 188 212 237 288 299 301 303 310 312
303 291 261 240 247 249 238 224 208 204 189 197 190 167 158 170 134 192 195 201 206 199 200 191 193 194 196 195 189 190 188 188 183 190 197 221 256 280 298 302 302 306 307
305 297 269 243 251 248 246 233 224 218 198 190 200 207 182 157 156 147 221 204 198 197 192 193 195 197 199 200 197 201 200 203 198 191 203 240 273 283 295 296 301 304 307
287 278 281 262 251 242 241 243 226 218 213 202 198 196 172 173 150 139 164 203 227 199 187 191 195 199 199 208 207 207 209 208 202 201 207 214 266 286 296 304 299 307 307
301 276 272 273 264 257 238 238 235 231 217 212 220 210 188 172 178 175 122 144 202 216 213 183 192 195 202 207 214 213 214 214 216 216 220 224 244 274 302 300 300 306 309
302 291 275 259 260 256 248 233 231 227 219 217 215 210 213 206 190 194 168 130 154 194 210 209 200 197 203 207 220 223 222 221 224 228 229 228 250 273 286 297 303 308 316
296 288 284 270 261 254 248 240 229 229 233 235 231 229 228 228 225 205 193 155 114 158 190 202 216 214 215 219 220 234 232 229 233 236 239 251 270 281 282 290 307 316 326
292 292 280 269 261 251 243 240 228 224 226 226 228 235 232 232 240 232 226 208 161 171 201 208 197 217 220 218 223 231 230 238 238 246 253 262 272 278 270 289 304 312 316
297 291 270 263 259 253 240 230 224 231 232 221 225 233 233 233 236 228 221 217 205 168 146 181 197 203 208 206 209 224 226 233 243 252 263 270 280 282 279 296 297 310 311
301 288 273 253 250 249 239 226 227 227 223 226 222 226 233 232 231 229 223 221 216 197 139 150 181 186 188 196 201 211 223 229 243 257 264 272 280 265 276 303 305 307 308
302 284 279 254 254 246 240 226 227 229 229 222 225 218 227 230 231 235 228 218 210 206 171 146 164 171 187 196 205 208 216 237 248 251 270 283 282 261 281 303 309 302 308
309 301 276 269 250 247 230 227 223 223 223 226 227 227 227 228 225 227 226 219 209 194 188 172 149 169 171 185 189 205 216 225 243 267 278 292 278 273 295 304 304 302 306
309 300 275 267 253 240 241 222 218 220 220 222 220 226 228 226 224 223 216 207 196 181 172 166 152 162 172 180 197 203 205 215 254 264 278 287 281 286 286 300 299 305 319
310 293 269 257 249 238 235 226 217 224 216 217 211 213 224 223 232 227 211 197 189 174 164 156 148 160 172 175 192 188 195 198 207 238 273 284 299 284 276 299 311 321 317
308 293 267 252 242 240 236 227 226 221 207 206 197 198 207 213 217 218 219 210 197 176 166 154 161 164 177 178 185 192 175 174 193 230 298 302 265 282 307 311 313 320 327
308 292 270 247 241 238 229 222 220 210 195 190 190 181 177 183 186 178 175 170 170 174 180 183 172 175 173 182 175 166 179 176 180 224 310 247 278 321 322 316 313 349 331
304 294 271 249 235 228 213 209 212 192 180 173 174 170 168 157 158 158 151 140 135 137 146 154 163 158 163 162 174 178 173 155 147 113 6 330 328 331 338 325 114 342 335
296 282 270 238 212 189 180 187 182 164 158 152 160 161 162 154 148 153 145 129 120 111 123 131 131 130 138 152 160 156 153 157 136 132 17 3 354 335 327 169 293 341 338
283 268 198 152 162 151 152 169 171 157 139 136 147 145 151 140 134 143 142 141 122 126 132 128 119 118 124 121 143 145 148 137 120 101 16 12 358 359 320 277 321 342 341